| time (UTC) | temp F | wind direction | speed MPH | gust MPH | rain 1hr in | rain 24hr in | rain mn in | humidity % | barometer mb |
| 20260508012510 | 48 | 265 | 0.0 | 0.0 | 0.00 | 0.01 | 0.01 | 65 | 1006.7 |
| 20260508012006 | 48 | 265 | 0.0 | 1.0 | 0.00 | 0.01 | 0.01 | 66 | 1006.8 |
| 20260508011506 | 48 | 265 | 0.0 | 1.0 | 0.00 | 0.01 | 0.01 | 62 | 1006.7 |
| 20260508011006 | 48 | 265 | 0.0 | 1.0 | 0.00 | 0.01 | 0.01 | 64 | 1006.6 |
| 20260508010505 | 48 | 265 | 0.0 | 1.0 | 0.00 | 0.01 | 0.01 | 62 | 1006.6 |
| 20260508010006 | 48 | 265 | 0.0 | 1.0 | 0.00 | 0.01 | 0.01 | 58 | 1006.5 |
| 20260508005507 | 49 | 265 | 0.0 | 0.0 | 0.00 | 0.01 | 0.01 | 60 | 1006.6 |
| 20260508005007 | 49 | 265 | 0.0 | 0.0 | 0.00 | 0.01 | 0.01 | 63 | 1006.5 |
| 20260508004509 | 49 | 265 | 0.0 | 0.0 | 0.00 | 0.01 | 0.01 | 62 | 1006.4 |
| 20260508004005 | 50 | 265 | 0.0 | 0.0 | 0.00 | 0.01 | 0.01 | 62 | 1006.3 |
| 20260508003504 | 50 | 265 | 0.0 | 1.0 | 0.00 | 0.01 | 0.01 | 60 | 1006.2 |
| 20260508003006 | 50 | 265 | 0.0 | 1.0 | 0.00 | 0.01 | 0.01 | 56 | 1006.3 |
| 20260508002504 | 51 | 265 | 0.0 | 1.0 | 0.00 | 0.01 | 0.01 | 57 | 1006.2 |
| 20260508002004 | 51 | 265 | 0.0 | 1.0 | 0.00 | 0.01 | 0.01 | 57 | 1006.1 |
| 20260508001510 | 52 | 265 | 0.0 | 1.0 | 0.00 | 0.01 | 0.01 | 56 | 1006.1 |
| 20260508001004 | 52 | 265 | 0.0 | 1.0 | 0.00 | 0.01 | 0.01 | 53 | 1006.0 |
| 20260508000507 | 52 | 265 | 0.0 | 1.0 | 0.00 | 0.01 | 0.01 | 58 | 1006.0 |
| 20260508000004 | 53 | 265 | 0.0 | 1.0 | 0.00 | 0.02 | 0.01 | 50 | 1005.9 |
| 20260507235504 | 53 | 265 | 0.0 | 1.0 | 0.00 | 0.02 | 0.01 | 53 | 1005.8 |
| 20260507235005 | 53 | 265 | 0.0 | 2.0 | 0.00 | 0.02 | 0.01 | 54 | 1005.8 |
| 20260507234503 | 54 | 265 | 0.0 | 2.0 | 0.00 | 0.02 | 0.01 | 52 | 1005.7 |
| 20260507234050 | 54 | 238 | 0.0 | 1.0 | 0.00 | 0.02 | 0.01 | 50 | 1005.7 |
| 20260507233503 | 54 | 221 | 0.0 | 2.0 | 0.00 | 0.02 | 0.01 | 45 | 1005.7 |
| 20260507233008 | 55 | 228 | 0.0 | 2.0 | 0.00 | 0.02 | 0.01 | 45 | 1005.8 |
| 20260507232504 | 55 | 315 | 0.0 | 2.0 | 0.00 | 0.02 | 0.01 | 46 | 1005.7 |
| 20260507232002 | 55 | 314 | 0.0 | 2.0 | 0.00 | 0.02 | 0.01 | 41 | 1005.6 |
| 20260507231502 | 56 | 319 | 0.0 | 4.0 | 0.00 | 0.02 | 0.01 | 45 | 1005.6 |
| 20260507231002 | 57 | 250 | 0.0 | 4.0 | 0.00 | 0.02 | 0.01 | 41 | 1005.5 |
| 20260507230503 | 57 | 281 | 0.0 | 4.0 | 0.00 | 0.02 | 0.01 | 40 | 1005.6 |
| 20260507230005 | 57 | 149 | 0.0 | 4.0 | 0.00 | 0.03 | 0.01 | 40 | 1005.5 |
| 20260507225501 | 57 | 30 | 1.0 | 5.0 | 0.00 | 0.03 | 0.01 | 39 | 1005.5 |
| 20260507225001 | 57 | 287 | 1.0 | 4.0 | 0.00 | 0.03 | 0.01 | 40 | 1005.4 |
| 20260507224503 | 57 | 153 | 0.0 | 4.0 | 0.00 | 0.03 | 0.01 | 38 | 1005.4 |
| 20260507224002 | 57 | 257 | 1.0 | 7.0 | 0.00 | 0.03 | 0.01 | 38 | 1005.3 |
| 20260507223501 | 58 | 211 | 2.0 | 7.0 | 0.00 | 0.03 | 0.01 | 37 | 1005.2 |
| 20260507223001 | 58 | 320 | 2.0 | 5.0 | 0.00 | 0.03 | 0.01 | 37 | 1005.2 |
| 20260507222601 | 58 | 330 | 2.0 | 8.0 | 0.00 | 0.03 | 0.01 | 36 | 1005.2 |
| 20260507222100 | 59 | 317 | 2.0 | 8.0 | 0.00 | 0.03 | 0.01 | 38 | 1005.1 |
| 20260507221600 | 59 | 207 | 1.0 | 6.0 | 0.00 | 0.03 | 0.01 | 38 | 1005.1 |
| 20260507221159 | 59 | 227 | 2.0 | 7.0 | 0.00 | 0.03 | 0.01 | 34 | 1005.0 |
| 20260507220601 | 59 | 236 | 2.0 | 7.0 | 0.00 | 0.03 | 0.01 | 37 | 1005.0 |
| 20260507220059 | 60 | 301 | 3.0 | 6.0 | 0.00 | 0.06 | 0.01 | 35 | 1005.0 |
| 20260507215601 | 60 | 163 | 1.0 | 6.0 | 0.00 | 0.06 | 0.01 | 37 | 1004.9 |
| 20260507215059 | 59 | 234 | 2.0 | 7.0 | 0.00 | 0.06 | 0.01 | 35 | 1004.8 |
| 20260507214602 | 59 | 325 | 2.0 | 7.0 | 0.00 | 0.06 | 0.01 | 35 | 1004.8 |
| 20260507214059 | 60 | 263 | 1.0 | 6.0 | 0.00 | 0.06 | 0.01 | 36 | 1004.9 |
| 20260507213559 | 60 | 338 | 1.0 | 7.0 | 0.00 | 0.06 | 0.01 | 37 | 1004.9 |
| 20260507213058 | 60 | 252 | 2.0 | 7.0 | 0.00 | 0.06 | 0.01 | 35 | 1004.7 |
| 20260507212559 | 60 | 40 | 0.0 | 6.0 | 0.00 | 0.06 | 0.01 | 36 | 1004.7 |
| 20260507212057 | 60 | 320 | 1.0 | 6.0 | 0.00 | 0.06 | 0.01 | 37 | 1004.9 |
| 20260507211558 | 61 | 143 | 2.0 | 8.0 | 0.00 | 0.06 | 0.01 | 37 | 1004.8 |
| 20260507211058 | 61 | 239 | 4.0 | 8.0 | 0.00 | 0.06 | 0.01 | 35 | 1004.8 |
| 20260507210600 | 61 | 261 | 4.0 | 9.0 | 0.00 | 0.06 | 0.01 | 36 | 1004.8 |
| 20260507210056 | 61 | 17 | 2.0 | 10.0 | 0.00 | 0.11 | 0.01 | 34 | 1004.7 |
| 20260507205556 | 61 | 248 | 4.0 | 10.0 | 0.00 | 0.11 | 0.01 | 35 | 1004.7 |
| 20260507205056 | 61 | 132 | 4.0 | 8.0 | 0.00 | 0.11 | 0.01 | 36 | 1004.6 |
| 20260507204559 | 60 | 18 | 3.0 | 6.0 | 0.00 | 0.11 | 0.01 | 36 | 1004.7 |
| 20260507204156 | 60 | 309 | 2.0 | 7.0 | 0.00 | 0.11 | 0.01 | 35 | 1004.7 |
| 20260507203556 | 61 | 14 | 3.0 | 11.0 | 0.00 | 0.11 | 0.01 | 36 | 1004.7 |
| 20260507203055 | 61 | 271 | 3.0 | 11.0 | 0.00 | 0.11 | 0.01 | 35 | 1004.7 |
| 20260507202559 | 62 | 173 | 4.0 | 11.0 | 0.00 | 0.11 | 0.01 | 36 | 1004.6 |
| 20260507202055 | 61 | 236 | 2.0 | 11.0 | 0.00 | 0.11 | 0.01 | 37 | 1004.7 |
| 20260507201559 | 61 | 320 | 1.0 | 7.0 | 0.00 | 0.11 | 0.01 | 35 | 1004.7 |
| 20260507201055 | 61 | 26 | 2.0 | 8.0 | 0.00 | 0.11 | 0.01 | 38 | 1004.7 |
| 20260507200554 | 61 | 259 | 3.0 | 8.0 | 0.00 | 0.11 | 0.01 | 36 | 1004.8 |
| 20260507200103 | 61 | 215 | 4.0 | 8.0 | 0.00 | 0.14 | 0.01 | 39 | 1004.7 |
| 20260507195553 | 62 | 236 | 1.0 | 8.0 | 0.00 | 0.14 | 0.01 | 37 | 1004.7 |
| 20260507195053 | 61 | 206 | 3.0 | 8.0 | 0.00 | 0.14 | 0.01 | 38 | 1004.7 |
| 20260507194553 | 61 | 258 | 2.0 | 5.0 | 0.00 | 0.14 | 0.01 | 40 | 1004.8 |
| 20260507194052 | 61 | 271 | 1.0 | 6.0 | 0.00 | 0.14 | 0.01 | 35 | 1004.8 |
| 20260507193552 | 61 | 229 | 2.0 | 7.0 | 0.00 | 0.14 | 0.01 | 37 | 1005.0 |
| 20260507193053 | 61 | 311 | 3.0 | 8.0 | 0.00 | 0.14 | 0.01 | 36 | 1005.0 |
| 20260507192551 | 62 | 226 | 2.0 | 9.0 | 0.00 | 0.14 | 0.01 | 36 | 1005.0 |
| 20260507192054 | 61 | 325 | 1.0 | 9.0 | 0.00 | 0.14 | 0.01 | 36 | 1004.9 |
| 20260507191555 | 62 | 360 | 3.0 | 8.0 | 0.00 | 0.14 | 0.01 | 36 | 1005.0 |
| 20260507191049 | 63 | 313 | 4.0 | 9.0 | 0.00 | 0.14 | 0.01 | 32 | 1005.1 |
| 20260507190549 | 63 | 85 | 3.0 | 9.0 | 0.00 | 0.14 | 0.01 | 34 | 1005.2 |
| 20260507190054 | 63 | 233 | 3.0 | 9.0 | 0.00 | 0.25 | 0.01 | 35 | 1005.2 |
| 20260507185548 | 63 | 292 | 5.0 | 9.0 | 0.00 | 0.25 | 0.01 | 32 | 1005.0 |
| 20260507185047 | 63 | 210 | 2.0 | 8.0 | 0.00 | 0.25 | 0.01 | 35 | 1005.3 |
| 20260507184550 | 62 | 336 | 3.0 | 7.0 | 0.00 | 0.25 | 0.01 | 37 | 1005.3 |
| 20260507184047 | 62 | 306 | 3.0 | 9.0 | 0.00 | 0.25 | 0.01 | 37 | 1005.5 |
| 20260507183546 | 63 | 185 | 4.0 | 7.0 | 0.00 | 0.25 | 0.01 | 34 | 1005.7 |
| 20260507183047 | 62 | 263 | 3.0 | 6.0 | 0.00 | 0.25 | 0.01 | 39 | 1005.5 |
| 20260507182546 | 62 | 296 | 2.0 | 7.0 | 0.00 | 0.25 | 0.01 | 35 | 1005.6 |
| 20260507182045 | 62 | 302 | 2.0 | 7.0 | 0.00 | 0.25 | 0.01 | 34 | 1005.6 |
| 20260507181549 | 62 | 244 | 4.0 | 7.0 | 0.00 | 0.25 | 0.01 | 35 | 1005.6 |
| 20260507181045 | 63 | 215 | 3.0 | 9.0 | 0.00 | 0.25 | 0.01 | 33 | 1005.8 |
| 20260507180545 | 63 | 36 | 2.0 | 9.0 | 0.00 | 0.25 | 0.01 | 35 | 1005.8 |
| 20260507180044 | 63 | 217 | 3.0 | 8.0 | 0.00 | 0.34 | 0.01 | 38 | 1005.8 |
| 20260507175543 | 63 | 229 | 4.0 | 9.0 | 0.00 | 0.34 | 0.01 | 35 | 1005.8 |
| 20260507175043 | 64 | 194 | 4.0 | 9.0 | 0.00 | 0.34 | 0.01 | 37 | 1005.8 |
| 20260507174547 | 64 | 238 | 4.0 | 8.0 | 0.00 | 0.34 | 0.01 | 44 | 1005.7 |
| 20260507174042 | 63 | 250 | 2.0 | 11.0 | 0.00 | 0.34 | 0.01 | 42 | 1005.6 |
| 20260507173542 | 63 | 239 | 4.0 | 12.0 | 0.00 | 0.34 | 0.01 | 38 | 1005.7 |
| 20260507173041 | 63 | 232 | 6.0 | 12.0 | 0.00 | 0.34 | 0.01 | 38 | 1005.6 |
| 20260507172542 | 62 | 314 | 3.0 | 9.0 | 0.00 | 0.34 | 0.01 | 36 | 1005.7 |
| 20260507172042 | 62 | 283 | 4.0 | 9.0 | 0.00 | 0.34 | 0.01 | 38 | 1005.7 |
| 20260507171541 | 62 | 290 | 4.0 | 10.0 | 0.00 | 0.34 | 0.01 | 33 | 1005.7 |
| 20260507171040 | 63 | 229 | 2.0 | 8.0 | 0.00 | 0.34 | 0.01 | 44 | 1005.8 |
| 20260507170539 | 62 | 343 | 2.0 | 7.0 | 0.00 | 0.34 | 0.01 | 39 | 1005.9 |
| 20260507170045 | 62 | 321 | 4.0 | 11.0 | 0.00 | 0.34 | 0.01 | 39 | 1006.0 |
| 20260507165538 | 62 | 317 | 2.0 | 11.0 | 0.00 | 0.34 | 0.01 | 40 | 1006.0 |
| 20260507165039 | 62 | 311 | 3.0 | 11.0 | 0.00 | 0.34 | 0.01 | 34 | 1006.1 |
| 20260507164538 | 63 | 268 | 2.0 | 7.0 | 0.00 | 0.34 | 0.01 | 37 | 1006.1 |
| 20260507164040 | 62 | 333 | 4.0 | 7.0 | 0.00 | 0.34 | 0.01 | 43 | 1006.1 |
| 20260507163536 | 61 | 305 | 1.0 | 7.0 | 0.00 | 0.34 | 0.01 | 44 | 1006.2 |
| 20260507163036 | 61 | 44 | 3.0 | 7.0 | 0.00 | 0.34 | 0.01 | 39 | 1006.2 |
| 20260507162535 | 61 | 279 | 3.0 | 9.0 | 0.00 | 0.34 | 0.01 | 45 | 1006.2 |
| 20260507162035 | 61 | 342 | 2.0 | 7.0 | 0.00 | 0.34 | 0.01 | 44 | 1006.4 |
| 20260507161534 | 61 | 321 | 4.0 | 7.0 | 0.00 | 0.34 | 0.01 | 42 | 1006.4 |
| 20260507161034 | 60 | 277 | 3.0 | 7.0 | 0.00 | 0.34 | 0.01 | 44 | 1006.4 |
| 20260507160534 | 61 | 325 | 4.0 | 9.0 | 0.00 | 0.34 | 0.01 | 45 | 1006.5 |
| 20260507160034 | 61 | 317 | 3.0 | 9.0 | 0.00 | 0.34 | 0.01 | 47 | 1006.4 |
| 20260507155533 | 60 | 209 | 4.0 | 8.0 | 0.00 | 0.34 | 0.01 | 45 | 1006.5 |
| 20260507155128 | 60 | 300 | 2.0 | 7.0 | 0.00 | 0.34 | 0.01 | 42 | 1006.3 |
| 20260507154528 | 60 | 322 | 2.0 | 8.0 | 0.00 | 0.34 | 0.01 | 50 | 1006.5 |
| 20260507154028 | 60 | 310 | 3.0 | 8.0 | 0.00 | 0.34 | 0.01 | 49 | 1006.5 |
| 20260507153526 | 59 | 259 | 3.0 | 7.0 | 0.00 | 0.34 | 0.01 | 51 | 1006.6 |
| 20260507153028 | 60 | 17 | 3.0 | 9.0 | 0.00 | 0.34 | 0.01 | 50 | 1006.7 |
| 20260507152526 | 60 | 349 | 4.0 | 9.0 | 0.00 | 0.34 | 0.01 | 49 | 1006.6 |
| 20260507152025 | 59 | 91 | 2.0 | 7.0 | 0.00 | 0.34 | 0.01 | 50 | 1006.7 |
| 20260507151521 | 59 | 5 | 2.0 | 8.0 | 0.00 | 0.34 | 0.01 | 50 | 1006.8 |
| 20260507151022 | 58 | 202 | 3.0 | 8.0 | 0.00 | 0.34 | 0.01 | 52 | 1006.8 |
| 20260507150521 | 58 | 5 | 2.0 | 5.0 | 0.00 | 0.34 | 0.01 | 58 | 1006.8 |
| 20260507150020 | 58 | 344 | 1.0 | 7.0 | 0.00 | 0.34 | 0.01 | 59 | 1006.8 |
| 20260507145519 | 58 | 284 | 2.0 | 7.0 | 0.00 | 0.34 | 0.01 | 59 | 1006.7 |
| 20260507145018 | 57 | 187 | 0.0 | 6.0 | 0.00 | 0.34 | 0.01 | 63 | 1006.9 |
| 20260507144518 | 56 | 141 | 2.0 | 6.0 | 0.00 | 0.34 | 0.01 | 61 | 1006.9 |
| 20260507144018 | 56 | 248 | 3.0 | 6.0 | 0.00 | 0.34 | 0.01 | 64 | 1007.0 |
| 20260507143517 | 57 | 263 | 1.0 | 6.0 | 0.00 | 0.34 | 0.01 | 62 | 1006.9 |
| 20260507143019 | 56 | 236 | 3.0 | 7.0 | 0.00 | 0.34 | 0.01 | 61 | 1006.9 |
| 20260507142517 | 56 | 242 | 2.0 | 5.0 | 0.00 | 0.34 | 0.01 | 63 | 1006.8 |
| 20260507142016 | 56 | 321 | 1.0 | 6.0 | 0.00 | 0.34 | 0.01 | 64 | 1006.9 |
| 20260507141516 | 56 | 5 | 1.0 | 6.0 | 0.00 | 0.34 | 0.01 | 64 | 1006.8 |
| 20260507141016 | 57 | 317 | 0.0 | 5.0 | 0.00 | 0.34 | 0.01 | 64 | 1006.8 |
| 20260507140515 | 56 | 273 | 0.0 | 5.0 | 0.00 | 0.34 | 0.01 | 67 | 1006.8 |
| 20260507140014 | 56 | 180 | 2.0 | 5.0 | 0.00 | 0.34 | 0.01 | 67 | 1006.9 |
| 20260507135519 | 57 | 23 | 1.0 | 5.0 | 0.00 | 0.34 | 0.01 | 61 | 1006.8 |
| 20260507135017 | 58 | 310 | 1.0 | 5.0 | 0.00 | 0.34 | 0.01 | 61 | 1006.8 |
| 20260507134513 | 57 | 171 | 0.0 | 6.0 | 0.00 | 0.34 | 0.01 | 67 | 1006.8 |
| 20260507134015 | 57 | 240 | 2.0 | 6.0 | 0.00 | 0.34 | 0.01 | 63 | 1006.8 |
| 20260507133511 | 57 | 323 | 1.0 | 5.0 | 0.00 | 0.34 | 0.01 | 63 | 1006.8 |
| 20260507133009 | 57 | 25 | 2.0 | 6.0 | 0.00 | 0.34 | 0.01 | 62 | 1006.8 |
| 20260507132512 | 56 | 307 | 2.0 | 7.0 | 0.00 | 0.34 | 0.01 | 61 | 1006.9 |
| 20260507132009 | 56 | 5 | 3.0 | 7.0 | 0.00 | 0.34 | 0.01 | 62 | 1007.0 |
| 20260507131510 | 56 | 311 | 1.0 | 6.0 | 0.00 | 0.34 | 0.01 | 64 | 1007.1 |
| 20260507131008 | 56 | 347 | 2.0 | 5.0 | 0.00 | 0.34 | 0.01 | 64 | 1007.2 |
| 20260507130502 | 56 | 18 | 1.0 | 5.0 | 0.00 | 0.34 | 0.01 | 65 | 1007.2 |
| 20260507130001 | 56 | 236 | 1.0 | 5.0 | 0.00 | 0.34 | 0.01 | 69 | 1007.2 |
| 20260507125603 | 56 | 11 | 2.0 | 5.0 | 0.00 | 0.34 | 0.01 | 66 | 1007.2 |
| 20260507125100 | 55 | 229 | 0.0 | 5.0 | 0.00 | 0.34 | 0.01 | 68 | 1007.1 |
| 20260507124557 | 55 | 327 | 1.0 | 5.0 | 0.00 | 0.34 | 0.01 | 70 | 1007.1 |
| 20260507124055 | 54 | 309 | 2.0 | 5.0 | 0.00 | 0.34 | 0.01 | 71 | 1007.1 |
| 20260507123553 | 54 | 235 | 2.0 | 7.0 | 0.00 | 0.34 | 0.01 | 69 | 1007.0 |
| 20260507123052 | 54 | 346 | 2.0 | 7.0 | 0.00 | 0.34 | 0.01 | 72 | 1007.2 |
| 20260507122550 | 54 | 5 | 2.0 | 7.0 | 0.00 | 0.34 | 0.01 | 71 | 1007.2 |
| 20260507122049 | 54 | 252 | 2.0 | 6.0 | 0.00 | 0.34 | 0.01 | 74 | 1007.2 |
| 20260507121558 | 53 | 63 | 0.0 | 5.0 | 0.00 | 0.34 | 0.01 | 75 | 1007.3 |
| 20260507121046 | 53 | 5 | 1.0 | 5.0 | 0.00 | 0.34 | 0.01 | 74 | 1007.4 |
| 20260507120544 | 52 | 23 | 1.0 | 5.0 | 0.00 | 0.34 | 0.01 | 76 | 1007.5 |
| 20260507120045 | 52 | 329 | 1.0 | 5.0 | 0.00 | 0.34 | 0.01 | 77 | 1007.5 |
| 20260507115541 | 52 | 268 | 1.0 | 4.0 | 0.00 | 0.34 | 0.01 | 79 | 1007.5 |
| 20260507115040 | 51 | 265 | 1.0 | 5.0 | 0.00 | 0.34 | 0.01 | 78 | 1007.5 |
| 20260507114538 | 51 | 299 | 1.0 | 5.0 | 0.00 | 0.34 | 0.01 | 79 | 1007.4 |
| 20260507114037 | 50 | 20 | 1.0 | 4.0 | 0.00 | 0.34 | 0.01 | 80 | 1007.4 |
| 20260507113537 | 50 | 292 | 1.0 | 4.0 | 0.00 | 0.34 | 0.01 | 81 | 1007.2 |
| 20260507113033 | 50 | 68 | 0.0 | 4.0 | 0.00 | 0.34 | 0.01 | 82 | 1007.3 |
| 20260507112532 | 49 | 19 | 1.0 | 4.0 | 0.00 | 0.34 | 0.01 | 82 | 1007.1 |
| 20260507112031 | 49 | 275 | 0.0 | 4.0 | 0.00 | 0.34 | 0.01 | 84 | 1007.2 |
| 20260507111529 | 49 | 278 | 1.0 | 4.0 | 0.00 | 0.34 | 0.01 | 84 | 1007.2 |
| 20260507111029 | 49 | 294 | 0.0 | 2.0 | 0.00 | 0.34 | 0.01 | 83 | 1007.3 |
| 20260507110528 | 48 | 355 | 0.0 | 2.0 | 0.00 | 0.34 | 0.01 | 84 | 1007.2 |
| 20260507110026 | 48 | 326 | 0.0 | 1.0 | 0.00 | 0.34 | 0.01 | 84 | 1007.2 |
| 20260507105525 | 48 | 326 | 0.0 | 4.0 | 0.00 | 0.34 | 0.01 | 84 | 1006.9 |
| 20260507105025 | 48 | 326 | 0.0 | 4.0 | 0.00 | 0.34 | 0.01 | 84 | 1006.9 |
| 20260507104525 | 48 | 300 | 0.0 | 7.0 | 0.00 | 0.34 | 0.01 | 85 | 1006.8 |
| 20260507104025 | 48 | 310 | 2.0 | 7.0 | 0.00 | 0.34 | 0.01 | 85 | 1006.6 |
| 20260507103523 | 48 | 355 | 1.0 | 4.0 | 0.00 | 0.34 | 0.01 | 85 | 1006.6 |
| 20260507103022 | 48 | 324 | 1.0 | 2.0 | 0.00 | 0.34 | 0.01 | 86 | 1006.6 |
| 20260507102522 | 48 | 277 | 0.0 | 2.0 | 0.00 | 0.34 | 0.01 | 87 | 1006.7 |
| 20260507102022 | 48 | 24 | 0.0 | 4.0 | 0.00 | 0.34 | 0.01 | 86 | 1006.6 |
| 20260507101520 | 48 | 248 | 0.0 | 4.0 | 0.00 | 0.34 | 0.01 | 86 | 1006.6 |
| 20260507101018 | 48 | 43 | 0.0 | 4.0 | 0.00 | 0.34 | 0.01 | 87 | 1006.7 |
| 20260507100518 | 48 | 325 | 0.0 | 2.0 | 0.00 | 0.34 | 0.01 | 86 | 1006.6 |
| 20260507100020 | 48 | 321 | 0.0 | 2.0 | 0.00 | 0.34 | 0.01 | 87 | 1006.6 |
| 20260507095519 | 48 | 321 | 0.0 | 2.0 | 0.00 | 0.34 | 0.01 | 87 | 1006.5 |
| 20260507095016 | 48 | 318 | 0.0 | 2.0 | 0.00 | 0.34 | 0.01 | 88 | 1006.7 |
| 20260507094517 | 48 | 315 | 0.0 | 1.0 | 0.00 | 0.34 | 0.01 | 88 | 1006.8 |
| 20260507094015 | 48 | 340 | 0.0 | 1.0 | 0.00 | 0.34 | 0.01 | 88 | 1006.9 |
| 20260507093515 | 48 | 332 | 0.0 | 4.0 | 0.00 | 0.34 | 0.01 | 88 | 1006.8 |
| 20260507093016 | 48 | 325 | 0.0 | 2.0 | 0.00 | 0.34 | 0.01 | 89 | 1006.6 |
| 20260507092515 | 48 | 321 | 0.0 | 2.0 | 0.00 | 0.34 | 0.01 | 89 | 1006.7 |
| 20260507092014 | 48 | 286 | 0.0 | 1.0 | 0.00 | 0.34 | 0.01 | 90 | 1006.6 |
| 20260507091516 | 48 | 290 | 0.0 | 2.0 | 0.00 | 0.34 | 0.01 | 90 | 1006.6 |
| 20260507091014 | 48 | 313 | 0.0 | 2.0 | 0.00 | 0.34 | 0.01 | 91 | 1006.7 |
| 20260507090515 | 48 | 301 | 0.0 | 1.0 | 0.00 | 0.34 | 0.01 | 91 | 1006.8 |
| 20260507090020 | 48 | 274 | 0.0 | 4.0 | 0.00 | 0.34 | 0.01 | 92 | 1006.9 |
| 20260507085512 | 48 | 323 | 1.0 | 3.0 | 0.00 | 0.34 | 0.01 | 92 | 1006.7 |
| 20260507085011 | 48 | 260 | 0.0 | 2.0 | 0.00 | 0.34 | 0.01 | 92 | 1007.0 |
| 20260507084513 | 48 | 260 | 0.0 | 2.0 | 0.00 | 0.34 | 0.01 | 92 | 1007.0 |
| 20260507084009 | 48 | 273 | 0.0 | 0.0 | 0.01 | 0.34 | 0.01 | 92 | 1006.6 |
| 20260507083510 | 48 | 273 | 0.0 | 1.0 | 0.01 | 0.34 | 0.01 | 92 | 1006.6 |
| 20260507083008 | 48 | 273 | 0.0 | 1.0 | 0.01 | 0.34 | 0.01 | 92 | 1006.5 |
| 20260507082509 | 49 | 273 | 0.0 | 2.0 | 0.01 | 0.34 | 0.01 | 92 | 1006.4 |
| 20260507082007 | 49 | 273 | 0.0 | 2.0 | 0.01 | 0.34 | 0.01 | 91 | 1006.5 |
| 20260507081511 | 49 | 270 | 0.0 | 2.0 | 0.01 | 0.34 | 0.01 | 91 | 1006.3 |
| 20260507081006 | 49 | 267 | 0.0 | 2.0 | 0.01 | 0.34 | 0.01 | 91 | 1006.3 |
| 20260507080505 | 49 | 286 | 0.0 | 2.0 | 0.01 | 0.34 | 0.01 | 91 | 1006.4 |
| 20260507080007 | 49 | 294 | 0.0 | 2.0 | 0.01 | 0.34 | 0.01 | 90 | 1006.1 |
| 20260507075507 | 49 | 294 | 0.0 | 2.0 | 0.01 | 0.34 | 0.01 | 90 | 1006.2 |
| 20260507075004 | 50 | 268 | 0.0 | 2.0 | 0.01 | 0.34 | 0.01 | 89 | 1006.3 |
| 20260507074502 | 50 | 327 | 0.0 | 2.0 | 0.01 | 0.34 | 0.01 | 89 | 1006.4 |
| 20260507074003 | 50 | 290 | 1.0 | 2.0 | 0.00 | 0.33 | 0.00 | 89 | 1006.7 |
| 20260507073600 | 50 | 277 | 1.0 | 2.0 | 0.00 | 0.33 | 0.00 | 88 | 1006.4 |
| 20260507073101 | 50 | 311 | 1.0 | 2.0 | 0.00 | 0.33 | 0.00 | 88 | 1006.4 |
| 20260507072600 | 50 | 289 | 0.0 | 4.0 | 0.00 | 0.33 | 0.00 | 88 | 1006.4 |
| 20260507072100 | 50 | 323 | 1.0 | 2.0 | 0.00 | 0.33 | 0.00 | 89 | 1006.1 |
| 20260507071559 | 50 | 241 | 0.0 | 2.0 | 0.00 | 0.33 | 0.00 | 89 | 1005.9 |
| 20260507071058 | 50 | 337 | 0.0 | 2.0 | 0.00 | 0.33 | 0.00 | 89 | 1006.1 |
| 20260507070558 | 50 | 346 | 0.0 | 2.0 | 0.00 | 0.33 | 0.00 | 89 | 1005.9 |
| 20260507070057 | 50 | 305 | 0.0 | 2.0 | 0.00 | 0.33 | 0.00 | 89 | 1005.8 |
| 20260507065556 | 50 | 305 | 0.0 | 1.0 | 0.00 | 0.33 | 0.00 | 88 | 1006.0 |
| 20260507065057 | 50 | 305 | 0.0 | 1.0 | 0.00 | 0.33 | 0.00 | 88 | 1006.1 |
| 20260507064556 | 50 | 302 | 0.0 | 2.0 | 0.00 | 0.33 | 0.00 | 88 | 1005.9 |
| 20260507064056 | 50 | 302 | 0.0 | 2.0 | 0.00 | 0.33 | 0.00 | 88 | 1005.8 |
| 20260507063555 | 50 | 323 | 0.0 | 4.0 | 0.00 | 0.33 | 0.00 | 89 | 1005.7 |
| 20260507063056 | 51 | 249 | 0.0 | 4.0 | 0.00 | 0.33 | 0.00 | 89 | 1005.8 |
| 20260507062554 | 51 | 240 | 1.0 | 5.0 | 0.00 | 0.33 | 0.00 | 90 | 1005.8 |
| 20260507062054 | 51 | 299 | 1.0 | 5.0 | 0.00 | 0.33 | 0.00 | 90 | 1005.4 |
| 20260507061553 | 51 | 319 | 1.0 | 4.0 | 0.00 | 0.33 | 0.00 | 90 | 1005.5 |
| 20260507061051 | 51 | 331 | 0.0 | 4.0 | 0.00 | 0.33 | 0.00 | 90 | 1005.6 |
| 20260507060551 | 51 | 323 | 0.0 | 1.0 | 0.00 | 0.33 | 0.00 | 90 | 1005.9 |
| 20260507060050 | 51 | 332 | 0.0 | 2.0 | 0.00 | 0.33 | 0.00 | 90 | 1005.8 |
| 20260507055550 | 51 | 332 | 0.0 | 2.0 | 0.00 | 0.33 | 0.00 | 90 | 1005.8 |
| 20260507055052 | 51 | 333 | 0.0 | 2.0 | 0.00 | 0.33 | 0.00 | 90 | 1006.0 |
| 20260507054626 | 51 | 344 | 0.0 | 4.0 | 0.00 | 0.33 | 0.00 | 90 | 1006.2 |
| 20260507054049 | 51 | 297 | 0.0 | 4.0 | 0.00 | 0.33 | 0.00 | 90 | 1006.4 |
| 20260507053550 | 51 | 236 | 0.0 | 4.0 | 0.00 | 0.33 | 0.00 | 91 | 1006.2 |
| 20260507053052 | 51 | 268 | 1.0 | 3.0 | 0.00 | 0.33 | 0.00 | 91 | 1006.2 |
| 20260507052546 | 51 | 293 | 0.0 | 5.0 | 0.00 | 0.33 | 0.00 | 91 | 1006.2 |
| 20260507052046 | 52 | 292 | 0.0 | 5.0 | 0.00 | 0.33 | 0.00 | 92 | 1006.3 |
| 20260507051546 | 52 | 247 | 0.0 | 2.0 | 0.00 | 0.33 | 0.00 | 92 | 1006.2 |
| 20260507051050 | 52 | 323 | 0.0 | 2.0 | 0.00 | 0.33 | 0.00 | 92 | 1006.2 |
| 20260507050544 | 52 | 317 | 1.0 | 2.0 | 0.00 | 0.33 | 0.00 | 92 | 1006.2 |
| 20260507050052 | 52 | 327 | 0.0 | 2.0 | 0.00 | 0.33 | 0.00 | 92 | 1006.2 |
| 20260507045544 | 52 | 327 | 0.0 | 2.0 | 0.00 | 0.33 | 0.00 | 92 | 1006.1 |
| 20260507045043 | 52 | 327 | 0.0 | 4.0 | 0.00 | 0.33 | 0.00 | 92 | 1006.0 |
| 20260507044549 | 53 | 355 | 1.0 | 5.0 | 0.00 | 0.33 | 0.00 | 92 | 1006.0 |
| 20260507044041 | 53 | 40 | 1.0 | 5.0 | 0.00 | 0.33 | 0.00 | 93 | 1005.8 |
| 20260507043541 | 53 | 310 | 0.0 | 2.0 | 0.00 | 0.33 | 0.00 | 92 | 1006.1 |
| 20260507043044 | 53 | 173 | 0.0 | 2.0 | 0.00 | 0.33 | 0.00 | 93 | 1006.2 |
| 20260507042540 | 53 | 299 | 0.0 | 4.0 | 0.00 | 0.33 | 0.00 | 93 | 1006.1 |
| 20260507042038 | 53 | 326 | 1.0 | 4.0 | 0.00 | 0.33 | 0.00 | 93 | 1006.1 |
| 20260507041541 | 53 | 304 | 0.0 | 4.0 | 0.00 | 0.33 | 0.00 | 93 | 1006.2 |
| 20260507041037 | 53 | 296 | 0.0 | 2.0 | 0.00 | 0.33 | 0.00 | 94 | 1006.3 |
| 20260507040536 | 54 | 287 | 0.0 | 2.0 | 0.00 | 0.33 | 0.00 | 94 | 1006.2 |
| 20260507040037 | 54 | 257 | 0.0 | 2.0 | 0.00 | 0.33 | 0.33 | 94 | 1006.1 |
| 20260507035534 | 54 | 284 | 0.0 | 4.0 | 0.00 | 0.33 | 0.33 | 94 | 1005.9 |
| 20260507035033 | 54 | 332 | 1.0 | 4.0 | 0.00 | 0.33 | 0.33 | 94 | 1005.8 |
| 20260507034533 | 54 | 316 | 1.0 | 3.0 | 0.00 | 0.33 | 0.33 | 94 | 1005.6 |
| 20260507034032 | 54 | 318 | 1.0 | 4.0 | 0.00 | 0.33 | 0.33 | 95 | 1005.7 |
| 20260507033532 | 54 | 311 | 1.0 | 3.0 | 0.00 | 0.33 | 0.33 | 95 | 1005.5 |
| 20260507033033 | 55 | 302 | 1.0 | 4.0 | 0.00 | 0.33 | 0.33 | 95 | 1005.4 |
| 20260507032530 | 55 | 319 | 1.0 | 6.0 | 0.00 | 0.33 | 0.33 | 95 | 1005.3 |
| 20260507032029 | 55 | 338 | 3.0 | 6.0 | 0.00 | 0.33 | 0.33 | 95 | 1005.4 |
| 20260507031529 | 56 | 360 | 1.0 | 3.0 | 0.00 | 0.33 | 0.33 | 96 | 1005.4 |
| 20260507031032 | 56 | 331 | 0.0 | 4.0 | 0.00 | 0.33 | 0.33 | 96 | 1005.1 |
| 20260507030529 | 56 | 348 | 1.0 | 3.0 | 0.00 | 0.33 | 0.33 | 95 | 1005.1 |
| 20260507030027 | 57 | 16 | 1.0 | 5.0 | 0.00 | 0.33 | 0.33 | 95 | 1005.0 |
| 20260507025526 | 57 | 98 | 1.0 | 5.0 | 0.00 | 0.33 | 0.33 | 96 | 1005.0 |
| 20260507025026 | 57 | 286 | 0.0 | 2.0 | 0.00 | 0.33 | 0.33 | 96 | 1005.1 |
| 20260507024526 | 58 | 293 | 0.0 | 4.0 | 0.00 | 0.33 | 0.33 | 96 | 1005.1 |
| 20260507024025 | 58 | 328 | 0.0 | 4.0 | 0.00 | 0.33 | 0.33 | 96 | 1004.9 |
| 20260507023526 | 58 | 338 | 0.0 | 4.0 | 0.00 | 0.33 | 0.33 | 96 | 1004.9 |
| 20260507023028 | 58 | 300 | 1.0 | 5.0 | 0.00 | 0.33 | 0.33 | 95 | 1004.9 |
| 20260507022530 | 59 | 248 | 1.0 | 8.0 | 0.00 | 0.33 | 0.33 | 96 | 1004.9 |
| 20260507022027 | 59 | 298 | 1.0 | 8.0 | 0.00 | 0.33 | 0.33 | 96 | 1004.7 |
| 20260507021524 | 59 | 218 | 0.0 | 1.0 | 0.00 | 0.33 | 0.33 | 96 | 1004.4 |
| 20260507021024 | 59 | 215 | 0.0 | 2.0 | 0.00 | 0.33 | 0.33 | 96 | 1004.3 |
| 20260507020524 | 59 | 215 | 0.0 | 2.0 | 0.00 | 0.33 | 0.33 | 96 | 1004.3 |
| 20260507020024 | 59 | 206 | 0.0 | 1.0 | 0.00 | 0.33 | 0.33 | 96 | 1004.3 |
| 20260507015525 | 59 | 206 | 0.0 | 2.0 | 0.00 | 0.33 | 0.33 | 96 | 1004.4 |
| 20260507015023 | 59 | 206 | 0.0 | 2.0 | 0.00 | 0.33 | 0.33 | 96 | 1004.3 |
| 20260507014533 | 59 | 206 | 0.0 | 2.0 | 0.00 | 0.33 | 0.33 | 96 | 1004.2 |
| 20260507014023 | 59 | 206 | 0.0 | 2.0 | 0.00 | 0.33 | 0.33 | 96 | 1004.2 |
| 20260507013522 | 59 | 206 | 0.0 | 2.0 | 0.00 | 0.33 | 0.33 | 96 | 1004.2 |
| 20260507013022 | 59 | 193 | 0.0 | 2.0 | 0.00 | 0.33 | 0.33 | 96 | 1004.3 |